| time (UTC) | temp F | wind direction | speed knots | gust knots | rain 1hr in | rain 24hr in | rain mn in | humidity % | barometer mb |
| 20260510103533 | 57 | 311 | 6.1 | 16.5 | 0.00 | 0.05 | 0.05 | 100 | 1008.1 |
| 20260510103022 | 57 | 5 | 3.5 | 11.3 | 0.00 | 0.05 | 0.05 | 100 | 1008.3 |
| 20260510102519 | 57 | 304 | 3.5 | 11.3 | 0.00 | 0.05 | 0.05 | 100 | 1008.3 |
| 20260510102019 | 57 | 308 | 4.3 | 15.6 | 0.00 | 0.05 | 0.05 | 100 | 1008.2 |
| 20260510101514 | 57 | 338 | 3.5 | 12.2 | 0.01 | 0.05 | 0.05 | 100 | 1008.3 |
| 20260510101016 | 57 | 331 | 5.2 | 11.3 | 0.01 | 0.05 | 0.05 | 100 | 1008.4 |
| 20260510100510 | 57 | 340 | 4.3 | 10.4 | 0.01 | 0.05 | 0.05 | 100 | 1008.4 |
| 20260510100001 | 57 | 301 | 5.2 | 11.3 | 0.01 | 0.05 | 0.05 | 100 | 1008.2 |
| 20260510094507 | 57 | 329 | 3.5 | 11.3 | 0.01 | 0.05 | 0.05 | 100 | 1008.4 |
| 20260510094004 | 56 | 317 | 5.2 | 11.3 | 0.01 | 0.05 | 0.05 | 100 | 1008.5 |
| 20260510093504 | 56 | 343 | 6.1 | 10.4 | 0.01 | 0.05 | 0.05 | 100 | 1008.4 |
| 20260510093001 | 56 | 310 | 5.2 | 10.4 | 0.01 | 0.05 | 0.05 | 100 | 1008.6 |
| 20260509191654 | 65 | 5 | 1.7 | 4.3 | 0.00 | 0.11 | 0.11 | 100 | 1010.0 |
| 20260509190653 | 66 | 5 | 0.9 | 3.5 | 0.00 | 0.11 | 0.11 | 100 | 1009.9 |
| 20260509190148 | 67 | 5 | 1.7 | 3.5 | 0.00 | 0.11 | 0.11 | 100 | 1009.8 |
| 20260509185640 | 67 | 5 | 0.9 | 2.6 | 0.00 | 0.11 | 0.11 | 100 | 1009.9 |
| 20260509185137 | 67 | 5 | 1.7 | 2.6 | 0.00 | 0.11 | 0.11 | 100 | 1009.8 |
| 20260509184707 | 67 | 5 | 0.9 | 2.6 | 0.00 | 0.11 | 0.11 | 100 | 1009.8 |
| 20260509184132 | 67 | 5 | 0.0 | 0.0 | 0.00 | 0.11 | 0.11 | 100 | 1009.8 |
| 20260509183632 | 67 | 5 | 0.0 | 1.7 | 0.00 | 0.11 | 0.11 | 100 | 1009.7 |
| 20260509183131 | 67 | 5 | 0.9 | 3.5 | 0.00 | 0.11 | 0.11 | 100 | 1009.7 |
| 20260509182626 | 67 | 5 | 0.9 | 3.5 | 0.00 | 0.11 | 0.11 | 100 | 1009.6 |
| 20260509182124 | 67 | 5 | 0.9 | 3.5 | 0.00 | 0.11 | 0.11 | 100 | 1009.5 |
| 20260509181623 | 67 | 5 | 0.9 | 4.3 | 0.00 | 0.11 | 0.11 | 100 | 1009.5 |
| 20260509181120 | 67 | 5 | 1.7 | 5.2 | 0.00 | 0.11 | 0.11 | 100 | 1009.4 |
| 20260509180619 | 68 | 5 | 2.6 | 5.2 | 0.00 | 0.11 | 0.11 | 100 | 1009.6 |
| 20260509180119 | 68 | 5 | 1.7 | 4.3 | 0.00 | 0.11 | 0.11 | 100 | 1009.5 |
| 20260509175615 | 69 | 5 | 0.0 | 4.3 | 0.00 | 0.11 | 0.11 | 100 | 1009.5 |
| 20260509175112 | 68 | 5 | 1.7 | 4.3 | 0.00 | 0.11 | 0.11 | 100 | 1009.4 |
| 20260509174611 | 69 | 5 | 1.7 | 4.3 | 0.00 | 0.11 | 0.11 | 100 | 1009.4 |
| 20260509174106 | 69 | 5 | 0.9 | 5.2 | 0.00 | 0.11 | 0.11 | 100 | 1009.3 |
| 20260509173604 | 69 | 5 | 2.6 | 5.2 | 0.00 | 0.11 | 0.11 | 100 | 1009.4 |
| 20260509173058 | 69 | 5 | 1.7 | 5.2 | 0.00 | 0.11 | 0.11 | 100 | 1009.4 |
| 20260509172552 | 69 | 5 | 1.7 | 4.3 | 0.00 | 0.11 | 0.11 | 100 | 1009.4 |
| 20260509172053 | 69 | 5 | 0.9 | 4.3 | 0.00 | 0.11 | 0.11 | 100 | 1009.4 |
| 20260509171540 | 68 | 5 | 0.0 | 4.3 | 0.00 | 0.11 | 0.11 | 100 | 1009.5 |
| 20260509171038 | 68 | 9 | 1.7 | 5.2 | 0.00 | 0.11 | 0.11 | 100 | 1009.4 |
| 20260509170536 | 69 | 10 | 2.6 | 4.3 | 0.00 | 0.11 | 0.11 | 100 | 1009.5 |
| 20260509170034 | 69 | 10 | 1.7 | 7.0 | 0.00 | 0.11 | 0.11 | 100 | 1009.5 |
| 20260509165524 | 69 | 11 | 2.6 | 7.0 | 0.00 | 0.11 | 0.11 | 100 | 1009.6 |
| 20260509165022 | 69 | 13 | 1.7 | 5.2 | 0.00 | 0.11 | 0.11 | 100 | 1009.6 |
| 20260509164520 | 69 | 13 | 2.6 | 5.2 | 0.00 | 0.11 | 0.11 | 100 | 1009.6 |
| 20260509164019 | 68 | 19 | 0.9 | 4.3 | 0.00 | 0.11 | 0.11 | 100 | 1009.6 |
| 20260509163516 | 68 | 21 | 0.9 | 5.2 | 0.00 | 0.11 | 0.11 | 100 | 1009.7 |
| 20260509163014 | 68 | 21 | 3.5 | 5.2 | 0.00 | 0.11 | 0.11 | 100 | 1009.6 |
| 20260509162513 | 68 | 19 | 0.0 | 4.3 | 0.00 | 0.11 | 0.11 | 100 | 1009.7 |
| 20260509162010 | 68 | 19 | 0.9 | 5.2 | 0.00 | 0.11 | 0.11 | 100 | 1009.7 |
| 20260509161508 | 68 | 19 | 1.7 | 5.2 | 0.00 | 0.11 | 0.11 | 100 | 1009.7 |
| 20260509161008 | 68 | 21 | 1.7 | 5.2 | 0.00 | 0.11 | 0.11 | 100 | 1009.7 |
| 20260509160502 | 68 | 20 | 1.7 | 7.0 | 0.00 | 0.11 | 0.11 | 100 | 1009.8 |